Regional Weather Roundup
Issued by NWS Upton, NY

Current Version | Previous Version | Graphics & Text | Print | Product List | Glossary Off
Versions: 1 2 3 4 5 6 7 8 9 10 11 12 13 14 15 16 17 18 19 20 21 22 23 24 25 26 27 28 29 30 31 32 33 34 35 36 37 38 39 40 41 42 43 44 45 46 47 48 49 50

000
ASUS41 KOKX 162008
RWROKX

REGIONAL WEATHER ROUNDUP
NATIONAL WEATHER SERVICE NEW YORK NY
400 PM EDT WED AUG 16 2017

NOTE: "FAIR" INDICATES FEW OR NO CLOUDS BELOW 12,000 FEET WITH NO
SIGNIFICANT WEATHER AND/OR OBSTRUCTIONS TO VISIBILITY.

NYZ071-072-176-178-NJZ106-104-162100-
NEW YORK CITY METRO AREA

CITY           SKY/WX    TMP DP  RH WIND       PRES   REMARKS
Central Park   PTSUNNY   85  62  46 VRB3      29.99S
Bronx Bot Gard   N/A     84  61  45 E3        29.97F
LaGuardia APRT PTSUNNY   84  63  49 N7        29.95S
Kennedy INTL   PTSUNNY   84  62  47 N3        29.96S
Breezy Point     N/A     86 N/A N/A W2          N/A
Newark/Liberty PTSUNNY   85  61  44 NW13      29.96S
Teterboro      PTSUNNY   86  61  42 NW7G16    29.94F
$$

NYZ177-179-078>081-162100-
LONG ISLAND NEW YORK

CITY           SKY/WX    TMP DP  RH WIND       PRES   REMARKS
Jones Beach      N/A     81 N/A N/A SW5         N/A
Matinecock PT    N/A     81 N/A N/A NE1         N/A
Farmingdale    SUNNY     85  59  41 N10       29.95F
MacArthur/ISP  PTSUNNY   86  61  42 N10       29.95R
Shirley        CLOUDY    88  64  44 NW8       29.95R
Mt Sinai Harb    N/A     82 N/A N/A NW5         N/A
Westhampton    MOSUNNY   87  59  38 NW9       29.95S
East Hampton   FAIR      83  62  48 N3        29.92F
Montauk          N/A     82  69  64 VRB3      29.93F
$$

NYZ052-065-067-162100-
HUDSON VALLEY

CITY           SKY/WX    TMP DP  RH WIND       PRES   REMARKS
White Plains   PTSUNNY   83  61  47 NW5       29.97S
Larchmont Harb   N/A     81 N/A N/A NE2         N/A
Croton On Huds   N/A     84 N/A N/A NW3         N/A
Newburgh       PTSUNNY   82  63  51 NW9       29.99S
Montgomery     PTSUNNY   84  61  45 NE3       29.96F
Poughkeepsie   MOSUNNY   82  61  48 CALM      29.95F
Albany         PTSUNNY   81  58  45 NW14      29.96S
$$

NJZ001-105-106-008-010-013-015-019>022-104-162100-
NEW JERSEY

CITY           SKY/WX    TMP DP  RH WIND       PRES   REMARKS
Newark/Liberty PTSUNNY   85  61  44 NW13      29.96S
Teterboro      PTSUNNY   86  61  42 NW7G16    29.94F
Caldwell       MOSUNNY   84  63  49 NW8       29.98S
Somerville     MOSUNNY   85  63  47 N7        29.96S
Linden         FAIR      84  59  42 N8        29.97R
Perth Amboy      N/A     82 N/A N/A NW12        N/A
Sussex         MOSUNNY   83  62  49 VRB7      29.99S
Andover          N/A     83  61  47 VRB7      30.00S
Trenton        PTSUNNY   85  66  53 N9        29.96S
Millville      PTSUNNY   89  72  56 VRB5      29.96F HX  96
Atlantic City  MOSUNNY   81  69  67 SE9       29.97S
Wrightstown    CLOUDY    87  68  52 NW8       29.93F HX  90
Toms River     PTSUNNY   84  71  65 SE6       29.97S
Belmar         MOSUNNY   86  62  44 N8G16     29.97F
$$

PAZ047>061-062-071-162100-
EASTERN PENNSYLVANIA

CITY           SKY/WX    TMP DP  RH WIND       PRES   REMARKS
Philadelphia   MOSUNNY   87  64  46 N10G18    29.97S
Allentown      MOSUNNY   86  62  44 N7        29.98F
Scranton       MOSUNNY   80  61  52 N8        30.03S
$$

CTZ002-004>006-009-010-012-RIZ004-006-007-MAZ004-011-015-162100-
SOUTHERN NEW ENGLAND
 IN CT

CITY           SKY/WX    TMP DP  RH WIND       PRES   REMARKS
Bradley INTL   MOSUNNY   84  58  40 N9        29.93F
Hartford       MOSUNNY   86  60  41 N9        29.92F
Danbury        MOSUNNY   83  61  47 VRB7      29.98S
Wtrbury/Oxford MOSUNNY   80  62  54 N12G20    29.98S
Norwalk Harbor   N/A     81 N/A N/A N7          N/A
Bridgeport     MOSUNNY   83  57  41 NW10      29.94S
Meriden        PTSUNNY   85  59  41 N7        29.93F
New Haven      MOSUNNY   85  58  39 N12       29.94R
Chester        NOT AVBL
Groton         MOSUNNY   86  60  41 N14       29.91S
Wilimantic     PTSUNNY   85  61  44 N8        29.92F

 IN RI

CITY           SKY/WX    TMP DP  RH WIND       PRES   REMARKS
Providence     PTSUNNY   86  60  41 N8        29.91F
Block Island   MOSUNNY   80  66  62 SW9       29.93F
Westerly       MOSUNNY   79  66  64 SE9       29.93S
 IN MA

CITY           SKY/WX    TMP DP  RH WIND       PRES   REMARKS
Boston         PTSUNNY   84  57  39 NW12      29.91S
Worcester      SUNNY     79  54  41 VRB7      29.97S
Westfield      MOSUNNY   85  57  38 NW13      29.93F
Provincetown   SUNNY     77  63  61 N3        29.92S
Nantucket      SUNNY     78  63  59 N12       29.92S
$$

ANZ330-335-338-340-345-350-353-355-162100-
COASTAL MARINE OBSERVATIONS


STATION/POSITION TIME  SKY/WX   TEMP    WIND        PRES    VSBY  WAVE
                                AIR SEA DIR/SP/G                  HT/PER
                 (UTC)          (F)     (DEG/KT/KT) (MB)    (MI)  (FT/S)
NY HARB ENTRANCE 1850            78 77  200/  4/  4 1013.9          5/11
GREAT SOUTH BAY  1930            81 79  320/ 12/ 14   N/A
23 SSW MONTAUK P 1850            76 74              1014.1          5/14
15 E BARNEGAT LI 1930               78                N/A           4/ 9
HUDSON CANYON    1850            74 75  330/  8/ 10 1013.6          4/10
KINGS POINT      1936            83 74   70/  4/  6 1014.2
EXECUTION ROCKS  NOT AVBL
WESTERN LI SOUND NOT AVBL
CENTRAL LI SOUND NOT AVBL
EASTERN LI SOUND NOT AVBL
ROBBINS REEF     1948                   310/ 11/ 14 1015.0
$$


>>>>>>>>>>>>>>>>>>>>>>>>>>>> KEY <<<<<<<<<<<<<<<<<<<<<<<<<<<
>                                                          <
>     SKY/WX - Sky Condition/Present Weather               <
>     TMP    - Temperature in Fahrenheit                   <
>     DP     - Dew Point in Fahrenheit                     <
>     RH     - Relative Humidity in Percent                <
>     WIND   - Direction (from) and Speed in MPH           <
>     PRES   - Mean Sea Level Pressure (inches of Hg)      <
>     WCI    - Wind Chill Index                            <
>     VSB    - VISIBILITY IN MILES                         <
>     HX     - HEAT INDEX                                  <
>     TC     - TEMPERATURE IN CELSIUS                      <
>     VRB    - VARIABLE WIND DIRECTION                     <
>                                                          <
>>>>>>>>>>>>>>>>>>>>>>>>>>>> KEY <<<<<<<<<<<<<<<<<<<<<<<<<<<



USA.gov is the U.S. government's official web portal to all federal, state and local government web resources and services.